Вернуться в каталог

SL-14 R/B

АктивенPO
NORAD 11267·ROCKET BODY·🇷🇺 Russia

Запущен Feb 12, 1979 с Plesetsk Cosmodrome

Loading…

Ближайшие Пролёты (ближайшие 24 часа)

TLE

СвежийSource: Space-Track

Эпоха: Sep 14, 2026, 00:50 UTC

1 11267U 79011B   26257.03488137  .00000352  00000-0  32025-4 0  9997
2 11267  82.5208 277.8393 0016892 143.6689 216.5681 14.92077841556868

Отслеживайте SL-14 R/B в реальном времени с AllMySat

Download on the App Store